Regional Weather Roundup
Issued by NWS

Home | Current Version | Previous Version | Text Only | Print | Product List | Glossary Off
Versions: 1 2 3 4 5 6 7 8 9 10 11 12 13 14 15 16 17 18 19 20 21 22 23 24 25 26 27 28 29 30 31 32 33 34 35 36 37 38 39 40 41 42 43 44 45 46 47 48 49 50

000
ASUS43 KFSD 251710
RWRSD

WEATHER ROUNDUP FOR SOUTH DAKOTA
NATIONAL WEATHER SERVICE SIOUX FALLS SD
1100 AM CST TUE NOV 25 2014

NOTE: "FAIR" INDICATES FEW OR NO CLOUDS BELOW 12,000 FEET WITH NO
SIGNIFICANT WEATHER AND/OR OBSTRUCTIONS TO VISIBILITY.


SDZ001>005-009-010-012>017-251800-
NORTHWEST AND NORTH CENTRAL SOUTH DAKOTA

CITY           SKY/WX    TMP DP  RH WIND       PRES   REMARKS
BUFFALO          N/A     31  29  92 SW10      29.67F WCI  22
FAITH            N/A     34  25  69 SW6       29.78F WCI  29
MOBRIDGE       CLOUDY    30  26  85 S10       29.82F WCI  21
$$

SDZ012>016-024>037-041>051-057-063-072>074-251800-
SOUTHWEST AND SOUTH CENTRAL SOUTH DAKOTA

CITY           SKY/WX    TMP DP  RH WIND       PRES   REMARKS
RAPID CTY ARPT CLOUDY    31  24  75 CALM      29.79S
PIERRE         CLOUDY    30  26  85 SE9       29.87F WCI  22
CUSTER         CLOUDY    28  19  69 W10G18    29.75S WCI  19
ELLSWORTH AFB  CLOUDY    33  24  70 W6        29.78S WCI  27
PHILIP         CLOUDY   N/A N/A N/A SW3       29.83F
PINE RIDGE     CLOUDY    33  25  72 SW9       29.83F WCI  25
SPEARFISH      LGT SNOW  32  27  80 W10       29.78S WCI  24
WINNER         FAIR      37  25  61 S10       29.90F
$$

SDZ004>011-016>023-039-040-251800-
NORTHEAST SOUTH DAKOTA

CITY           SKY/WX    TMP DP  RH WIND       PRES   REMARKS
ABERDEEN       CLOUDY    28  22  78 S12       29.94S WCI  18
WATERTOWN      CLOUDY    24  17  74 S7        29.94S WCI  16
SISSETON         N/A     27  19  72 SE5       29.95S WCI  22
$$

SDZ017-020-022-023-036>040-048>070-251800-
SOUTHEAST SOUTH DAKOTA

CITY           SKY/WX    TMP DP  RH WIND       PRES   REMARKS
SIOUX FALLS    PTSUNNY   29  13  51 S9        30.01F WCI  20
HURON          PTSUNNY   30  23  75 S6        29.96F WCI  24
CHAMBERLAIN    CLOUDY    33  27  78 SE7       29.92F WCI  27
MITCHELL       PTSUNNY   30  22  72 S8        29.99S WCI  22
YANKTON        MOSUNNY   32  21  64 S6        30.03S WCI  26
$$

ABBREVIATIONS USED IN REMARKS
   TC - TEMPERATURE IN CELSIUS
  WCI - WIND CHILL INDEX
   HX - HEAT INDEX
  VSB - VISIBILITY



USA.gov is the U.S. government's official web portal to all federal, state and local government web resources and services.